When you browse on this site, cookies collect data to enhance your experience and personalize the content and advertising you see.
Visit our Privacy Policy to learn more. By continuing to use the site, you agree to this use of cookies and data.
  • En España
  • Lista de países
  • Para 7 días
  • Temperatura del agua
  • El tiempo en el mapa
  • Informadores
  • user-avatar
    Iniciar sesión

    Tiempo cada hora San Juan

    Hoy, 19 Octubre, Sábado

    Tiempo Temperatura Precipitaciones Viento Presión Humedad
    00:00 +21°C° 0 mm 5 mps 709 mmHg 43%
    01:00 +20°C° 0 mm 4 mps 709 mmHg 44%
    02:00 +20°C° 0 mm 4 mps 709 mmHg 46%
    03:00 +19°C° 0 mm 5 mps 709 mmHg 47%
    04:00 +17°C° 0 mm 5 mps 709 mmHg 49%
    05:00 +19°C° 0 mm 5 mps 709 mmHg 47%
    06:00 +19°C° 0 mm 5 mps 709 mmHg 46%
    07:00 +20°C° 0 mm 5 mps 709 mmHg 44%
    08:00 +20°C° 0 mm 5 mps 709 mmHg 43%
    09:00 +21°C° 0 mm 5 mps 708 mmHg 43%
    10:00 +21°C° 0 mm 5 mps 708 mmHg 42%
    11:00 +22°C° 0 mm 5 mps 707 mmHg 40%
    12:00 +23°C° 0 mm 5 mps 706 mmHg 38%
    13:00 +25°C° 0 mm 5 mps 706 mmHg 36%
    14:00 +26°C° 0 mm 6 mps 705 mmHg 36%
    15:00 +26°C° 0 mm 6 mps 705 mmHg 35%
    16:00 +26°C° 0 mm 7 mps 704 mmHg 35%
    17:00 +24°C° 0 mm 7 mps 704 mmHg 37%
    18:00 +23°C° 0 mm 7 mps 704 mmHg 38%
    19:00 +22°C° 0 mm 8 mps 705 mmHg 40%
    20:00 +21°C° 0 mm 7 mps 704 mmHg 42%
    21:00 +21°C° 0 mm 7 mps 704 mmHg 44%
    22:00 +20°C° 0 mm 6 mps 704 mmHg 46%
    23:00 +19°C° 0.1 mm 6 mps 704 mmHg 48%

    Mañana, 20 Octubre, Domingo

    Tiempo Temperatura Precipitaciones Viento Presión Humedad
    00:00 +17°C° 0.1 mm 6 mps 703 mmHg 50%
    01:00 +17°C° 0.1 mm 5 mps 703 mmHg 52%
    02:00 +17°C° 0 mm 4 mps 703 mmHg 55%
    03:00 +17°C° 0 mm 3 mps 704 mmHg 58%
    04:00 +16°C° 0 mm 1 mps 704 mmHg 61%
    05:00 +17°C° 0 mm 2 mps 705 mmHg 59%
    06:00 +18°C° 0 mm 3 mps 705 mmHg 58%
    07:00 +19°C° 0 mm 4 mps 706 mmHg 56%
    08:00 +21°C° 0 mm 5 mps 707 mmHg 48%
    09:00 +23°C° 0 mm 6 mps 707 mmHg 41%
    10:00 +24°C° 0 mm 6 mps 707 mmHg 34%
    11:00 +26°C° 0 mm 7 mps 707 mmHg 30%
    12:00 +27°C° 0 mm 7 mps 706 mmHg 27%
    13:00 +28°C° 0 mm 7 mps 706 mmHg 24%
    14:00 +28°C° 0 mm 7 mps 706 mmHg 23%
    15:00 +28°C° 0 mm 6 mps 706 mmHg 22%
    16:00 +28°C° 0 mm 5 mps 706 mmHg 21%
    17:00 +26°C° 0 mm 4 mps 706 mmHg 24%
    18:00 +25°C° 0 mm 3 mps 706 mmHg 26%
    19:00 +24°C° 0 mm 2 mps 707 mmHg 28%
    20:00 +23°C° 0 mm 2 mps 707 mmHg 30%
    21:00 +23°C° 0 mm 2 mps 707 mmHg 31%
    22:00 +22°C° 0 mm 1 mps 707 mmHg 33%
    23:00 +21°C° 0 mm 1 mps 707 mmHg 33%

    Pasado mañana, 21 Octubre, Lunes

    Tiempo Temperatura Precipitaciones Viento Presión Humedad
    00:00 +21°C° 0 mm 1 mps 707 mmHg 34%
    01:00 +20°C° 0 mm 1 mps 706 mmHg 35%
    02:00 +20°C° 0 mm 1 mps 706 mmHg 36%
    03:00 +19°C° 0 mm 1 mps 707 mmHg 38%
    04:00 +19°C° 0 mm 1 mps 707 mmHg 39%
    05:00 +19°C° 0 mm 2 mps 707 mmHg 37%
    06:00 +20°C° 0 mm 2 mps 708 mmHg 35%
    07:00 +21°C° 0 mm 3 mps 708 mmHg 33%
    08:00 +24°C° 0 mm 3 mps 708 mmHg 30%
    09:00 +25°C° 0 mm 3 mps 708 mmHg 28%
    10:00 +27°C° 0 mm 3 mps 708 mmHg 26%
    11:00 +27°C° 0 mm 2 mps 708 mmHg 24%
    12:00 +28°C° 0 mm 2 mps 707 mmHg 21%
    13:00 +29°C° 0 mm 2 mps 706 mmHg 19%
    14:00 +29°C° 0 mm 2 mps 706 mmHg 19%
    15:00 +29°C° 0 mm 1 mps 706 mmHg 18%
    16:00 +30°C° 0 mm 1 mps 705 mmHg 17%
    17:00 +28°C° 0 mm 1 mps 706 mmHg 20%
    18:00 +27°C° 0 mm 2 mps 706 mmHg 22%
    19:00 +26°C° 0 mm 2 mps 706 mmHg 25%
    20:00 +26°C° 0 mm 2 mps 706 mmHg 26%
    21:00 +25°C° 0 mm 3 mps 707 mmHg 28%
    22:00 +24°C° 0 mm 3 mps 707 mmHg 30%
    23:00 +22°C° 0 mm 3 mps 706 mmHg 32%

    22 Octubre, Martes

    Tiempo Temperatura Precipitaciones Viento Presión Humedad
    00:00 +22°C° 0 mm 3 mps 706 mmHg 34%
    01:00 +21°C° 0 mm 2 mps 705 mmHg 36%
    02:00 +20°C° 0 mm 3 mps 705 mmHg 41%
    03:00 +19°C° 0 mm 3 mps 705 mmHg 46%
    04:00 +18°C° 0 mm 3 mps 705 mmHg 50%
    05:00 +18°C° 0 mm 4 mps 705 mmHg 49%
    06:00 +18°C° 0 mm 4 mps 706 mmHg 47%
    07:00 +19°C° 0 mm 5 mps 706 mmHg 45%
    08:00 +20°C° 0 mm 5 mps 706 mmHg 42%
    09:00 +21°C° 0 mm 5 mps 706 mmHg 38%
    10:00 +23°C° 0 mm 5 mps 705 mmHg 35%
    11:00 +25°C° 0 mm 4 mps 705 mmHg 32%
    12:00 +26°C° 0 mm 4 mps 704 mmHg 30%
    13:00 +27°C° 0 mm 3 mps 704 mmHg 28%
    14:00 +27°C° 0 mm 3 mps 703 mmHg 27%
    15:00 +27°C° 0 mm 3 mps 703 mmHg 26%
    16:00 +28°C° 0 mm 3 mps 703 mmHg 25%
    17:00 +27°C° 0 mm 2 mps 703 mmHg 27%
    18:00 +26°C° 0 mm 2 mps 704 mmHg 28%
    19:00 +25°C° 0 mm 2 mps 704 mmHg 30%
    20:00 +24°C° 0 mm 1 mps 704 mmHg 32%
    21:00 +23°C° 0 mm 1 mps 704 mmHg 34%
    22:00 +23°C° 0 mm 1 mps 704 mmHg 36%
    23:00 +22°C° 0 mm 1 mps 704 mmHg 37%

    23 Octubre, Miércoles

    Tiempo Temperatura Precipitaciones Viento Presión Humedad
    00:00 +21°C° 0 mm 2 mps 704 mmHg 38%
    01:00 +20°C° 0 mm 2 mps 704 mmHg 40%
    02:00 +20°C° 0 mm 2 mps 704 mmHg 41%
    03:00 +20°C° 0 mm 1 mps 704 mmHg 42%
    04:00 +20°C° 0 mm 1 mps 704 mmHg 44%
    05:00 +20°C° 0 mm 2 mps 704 mmHg 41%
    06:00 +21°C° 0 mm 2 mps 705 mmHg 39%
    07:00 +22°C° 0 mm 3 mps 705 mmHg 37%
    08:00 +25°C° 0 mm 3 mps 705 mmHg 35%
    09:00 +26°C° 0 mm 4 mps 705 mmHg 32%
    10:00 +27°C° 0 mm 4 mps 705 mmHg 30%
    11:00 +28°C° 0 mm 4 mps 705 mmHg 28%
    12:00 +29°C° 0 mm 4 mps 704 mmHg 25%
    13:00 +30°C° 0 mm 4 mps 704 mmHg 23%
    14:00 +30°C° 0 mm 4 mps 704 mmHg 22%
    15:00 +30°C° 0 mm 3 mps 703 mmHg 21%
    16:00 +30°C° 0 mm 3 mps 703 mmHg 20%
    17:00 +29°C° 0 mm 3 mps 703 mmHg 21%
    18:00 +28°C° 0 mm 2 mps 704 mmHg 22%
    19:00 +27°C° 0 mm 2 mps 704 mmHg 24%
    20:00 +26°C° 0 mm 2 mps 704 mmHg 27%
    21:00 +26°C° 0 mm 2 mps 704 mmHg 30%
    22:00 +25°C° 0 mm 2 mps 705 mmHg 33%
    23:00 +24°C° 0 mm 3 mps 704 mmHg 37%

    24 Octubre, Jueves

    Tiempo Temperatura Precipitaciones Viento Presión Humedad
    00:00 +22°C° 0 mm 4 mps 704 mmHg 41%
    01:00 +21°C° 0 mm 5 mps 704 mmHg 45%
    02:00 +20°C° 0 mm 5 mps 704 mmHg 51%
    03:00 +19°C° 0 mm 4 mps 704 mmHg 58%
    04:00 +18°C° 0 mm 4 mps 704 mmHg 64%
    05:00 +19°C° 0 mm 4 mps 704 mmHg 62%
    06:00 +19°C° 0 mm 4 mps 705 mmHg 59%
    07:00 +20°C° 0 mm 4 mps 705 mmHg 57%
    08:00 +21°C° 0 mm 4 mps 704 mmHg 52%
    09:00 +24°C° 0 mm 3 mps 704 mmHg 48%
    10:00 +25°C° 0 mm 3 mps 704 mmHg 43%
    11:00 +26°C° 0 mm 3 mps 703 mmHg 40%
    12:00 +27°C° 0 mm 2 mps 703 mmHg 36%
    13:00 +28°C° 0 mm 2 mps 703 mmHg 32%
    14:00 +29°C° 0 mm 2 mps 702 mmHg 31%
    15:00 +29°C° 0 mm 2 mps 702 mmHg 30%
    16:00 +30°C° 0 mm 2 mps 702 mmHg 28%
    17:00 +28°C° 0.1 mm 2 mps 702 mmHg 32%
    18:00 +27°C° 0.1 mm 1 mps 702 mmHg 35%
    19:00 +24°C° 0.1 mm 0 mps 702 mmHg 39%
    20:00 +23°C° 0 mm 0 mps 703 mmHg 40%
    21:00 +23°C° 0 mm 0 mps 703 mmHg 41%
    22:00 +22°C° 0 mm 0 mps 703 mmHg 42%
    23:00 +23°C° 0.2 mm 2 mps 703 mmHg 50%
    Mostrar más